"Sample Date","Sample Time","Sample Value","Units","Flow Rate","Sample Interval","Number Channels","Micron Size 0","Counts/Channel 0","Micron Size 1","Counts/Channel 1","Micron Size 2","Counts/Channel 2","Micron Size 3","Counts/Channel 3","Micron Size 4","Counts/Channel 4","Micron Size 5","Counts/Channel 5","Micron Size 6","Counts/Channel 6","Micron Size 7","Counts/Channel 7","Micron Size 8","Counts/Channel 8","Micron Size 9","Counts/Channel 9","Micron Size 10","Counts/Channel 10","Micron Size 11","Counts/Channel 11","Micron Size 12","Counts/Channel 12","Micron Size 13","Counts/Channel 13","Micron Size 14","Counts/Channel 14","Micron Size 15","Counts/Channel 15","Micron Size 16","Counts/Channel 16","Micron Size 17","Counts/Channel 17","Micron Size 18","Counts/Channel 18","Micron Size 19","Counts/Channel 19","Micron Size 20","Counts/Channel 20","Micron Size 21","Counts/Channel 21","Micron Size 22","Counts/Channel 22","Micron Size 23","Counts/Channel 23","Micron Size 24","Counts/Channel 24","Micron Size 25","Counts/Channel 25","Micron Size 26","Counts/Channel 26","Micron Size 27","Counts/Channel 27","Micron Size 28","Counts/Channel 28","Micron Size 29","Counts/Channel 29","Micron Size 30","Counts/Channel 30","Micron Size 31","Counts/Channel 31"
"04/02/08","21:00:01",26498.000,"cc",28268.414,6.00,6,0.100,23865.000,0.200,993.000,0.300,589.000,0.500,753.000,1.000,298.000,5.000,0
"04/02/08","21:00:07",26737.000,"cc",28311.922,6.00,6,0.100,23975.000,0.200,972.000,0.300,673.000,0.500,808.000,1.000,309.000,5.000,0
"04/02/08","21:00:13",26809.000,"cc",28318.100,6.00,6,0.100,23990.000,0.200,1062.000,0.300,624.000,0.500,817.000,1.000,316.000,5.000,0
"04/02/08","21:00:19",26638.000,"cc",28361.732,6.00,6,0.100,23743.000,0.200,1066.000,0.300,659.000,0.500,844.000,1.000,326.000,5.000,0
"04/02/08","21:00:25",26770.000,"cc",28287.420,6.00,6,0.100,23852.000,0.200,1064.000,0.300,698.000,0.500,851.000,1.000,305.000,5.000,0
"04/02/08","21:00:31",26864.000,"cc",28292.779,6.00,6,0.100,23833.000,0.200,1110.000,0.300,674.000,0.500,902.000,1.000,345.000,5.000,0
"04/02/08","21:00:37",26787.000,"cc",28250.338,6.00,6,0.100,24065.000,0.200,1051.000,0.300,650.000,0.500,722.000,1.000,299.000,5.000,0
"04/02/08","21:00:43",26863.000,"cc",28278.424,6.00,6,0.100,24026.000,0.200,1010.000,0.300,659.000,0.500,852.000,1.000,316.000,5.000,0
"04/02/08","21:00:49",26707.000,"cc",28280.648,6.00,6,0.100,23987.000,0.200,1008.000,0.300,645.000,0.500,765.000,1.000,302.000,5.000,0
"04/02/08","21:00:55",26601.000,"cc",28275.658,6.00,6,0.100,23955.000,0.200,1030.000,0.300,656.000,0.500,727.000,1.000,233.000,5.000,0
"04/02/08","21:01:01",26356.000,"cc",28330.463,6.00,6,0.100,23648.000,0.200,1046.000,0.300,635.000,0.500,752.000,1.000,275.000,5.000,0
"04/02/08","21:01:07",26882.000,"cc",28294.090,6.00,6,0.100,24240.000,0.200,964.000,0.300,647.000,0.500,744.000,1.000,287.000,5.000,0
"04/02/08","21:01:13",26968.000,"cc",28344.887,6.00,6,0.100,24049.000,0.200,1076.000,0.300,681.000,0.500,846.000,1.000,316.000,5.000,0
"04/02/08","21:01:19",26758.000,"cc",28384.139,6.00,6,0.100,24037.000,0.200,1027.000,0.300,658.000,0.500,760.000,1.000,276.000,5.000,0
"04/02/08","21:01:25",26723.000,"cc",28379.158,6.00,6,0.100,23868.000,0.200,1034.000,0.300,697.000,0.500,821.000,1.000,303.000,5.000,0
"04/02/08","21:01:31",26491.000,"cc",28317.623,6.00,6,0.100,23593.000,0.200,1056.000,0.300,682.000,0.500,844.000,1.000,316.000,5.000,0
"04/02/08","21:01:37",26480.000,"cc",28334.928,6.00,6,0.100,23693.000,0.200,1059.000,0.300,636.000,0.500,810.000,1.000,282.000,5.000,0
"04/02/08","21:01:43",26561.000,"cc",28297.244,6.00,6,0.100,23647.000,0.200,1058.000,0.300,720.000,0.500,829.000,1.000,307.000,5.000,0
"04/02/08","21:01:49",26250.000,"cc",28341.666,6.00,6,0.100,23568.000,0.200,1016.000,0.300,660.000,0.500,721.000,1.000,285.000,5.000,0
"04/02/08","21:01:55",26163.000,"cc",28335.231,6.00,6,0.100,23555.000,0.200,1004.000,0.300,630.000,0.500,710.000,1.000,264.000,5.000,0
"04/02/08","21:02:01",25972.000,"cc",28286.625,6.00,6,0.100,23333.000,0.200,978.000,0.300,644.000,0.500,742.000,1.000,275.000,5.000,0
"04/02/08","21:02:07",25942.000,"cc",28479.297,6.00,6,0.100,23195.000,0.200,1023.000,0.300,626.000,0.500,799.000,1.000,299.000,5.000,0
"04/02/08","21:02:13",25609.000,"cc",28437.143,6.00,6,0.100,22974.000,0.200,973.000,0.300,667.000,0.500,721.000,1.000,274.000,5.000,0
"04/02/08","21:02:19",25814.000,"cc",28253.940,6.00,6,0.100,23016.000,0.200,1058.000,0.300,656.000,0.500,805.000,1.000,279.000,5.000,0
"04/02/08","21:02:25",26781.000,"cc",28417.709,6.00,6,0.100,23332.000,0.200,1313.000,0.300,831.000,0.500,993.000,1.000,312.000,5.000,0
"04/02/08","21:02:31",25751.000,"cc",28545.268,6.00,6,0.100,22980.000,0.200,1041.000,0.300,658.000,0.500,778.000,1.000,294.000,5.000,0
"04/02/08","21:02:37",25364.000,"cc",28498.897,6.00,6,0.100,22599.000,0.200,1085.000,0.300,627.000,0.500,788.000,1.000,265.000,5.000,0
"04/02/08","21:02:43",25681.000,"cc",28377.770,6.00,6,0.100,22705.000,0.200,1156.000,0.300,725.000,0.500,792.000,1.000,303.000,5.000,0
"04/02/08","21:02:49",25924.000,"cc",28351.738,6.00,6,0.100,23050.000,0.200,1102.000,0.300,670.000,0.500,819.000,1.000,283.000,5.000,0
"04/02/08","21:02:55",25754.000,"cc",28326.607,6.00,6,0.100,22681.000,0.200,1137.000,0.300,729.000,0.500,892.000,1.000,315.000,5.000,0
"04/02/08","21:03:01",25673.000,"cc",28345.955,6.00,6,0.100,22766.000,0.200,1091.000,0.300,736.000,0.500,801.000,1.000,279.000,5.000,0
"04/02/08","21:03:07",24819.000,"cc",28352.998,6.00,6,0.100,22287.000,0.200,959.000,0.300,638.000,0.500,701.000,1.000,234.000,5.000,0
"04/02/08","21:03:13",25048.000,"cc",28315.996,6.00,6,0.100,22573.000,0.200,962.000,0.300,583.000,0.500,696.000,1.000,234.000,5.000,0
"04/02/08","21:03:19",25279.000,"cc",28292.145,6.00,6,0.100,22661.000,0.200,1014.000,0.300,609.000,0.500,721.000,1.000,274.000,5.000,0
"04/02/08","21:03:25",25768.000,"cc",28307.654,6.00,6,0.100,22942.000,0.200,1042.000,0.300,710.000,0.500,790.000,1.000,284.000,5.000,0
"04/02/08","21:03:31",25221.000,"cc",28294.910,6.00,6,0.100,22509.000,0.200,1034.000,0.300,654.000,0.500,767.000,1.000,257.000,5.000,0
"04/02/08","21:03:37",25316.000,"cc",28356.695,6.00,6,0.100,22610.000,0.200,1049.000,0.300,644.000,0.500,748.000,1.000,265.000,5.000,0
"04/02/08","21:03:43",24715.000,"cc",28306.977,6.00,6,0.100,22295.000,0.200,940.000,0.300,589.000,0.500,672.000,1.000,219.000,5.000,0
"04/02/08","21:03:49",28059.000,"cc",28347.412,6.00,6,0.100,23559.000,0.200,1558.000,0.300,1069.000,0.500,1303.000,1.000,570.000,5.000,0
"04/02/08","21:03:55",26266.000,"cc",28323.611,6.00,6,0.100,22986.000,0.200,1139.000,0.300,787.000,0.500,983.000,1.000,371.000,5.000,0
"04/02/08","21:04:01",25658.000,"cc",28210.238,6.00,6,0.100,23008.000,0.200,996.000,0.300,698.000,0.500,712.000,1.000,244.000,5.000,0
"04/02/08","21:04:07",25550.000,"cc",28346.420,6.00,6,0.100,22816.000,0.200,1016.000,0.300,670.000,0.500,781.000,1.000,267.000,5.000,0
"04/02/08","21:04:13",25303.000,"cc",28225.709,6.00,6,0.100,22806.000,0.200,955.000,0.300,597.000,0.500,693.000,1.000,252.000,5.000,0
"04/02/08","21:04:19",25757.000,"cc",28280.107,6.00,6,0.100,22771.000,0.200,1183.000,0.300,711.000,0.500,801.000,1.000,291.000,5.000,0
"04/02/08","21:04:25",25843.000,"cc",28400.947,6.00,6,0.100,23096.000,0.200,1116.000,0.300,620.000,0.500,777.000,1.000,234.000,5.000,0
"04/02/08","21:04:31",24794.000,"cc",28392.051,6.00,6,0.100,22289.000,0.200,990.000,0.300,597.000,0.500,675.000,1.000,243.000,5.000,0
"04/02/08","21:04:37",24729.000,"cc",28257.272,6.00,6,0.100,22224.000,0.200,974.000,0.300,616.000,0.500,680.000,1.000,235.000,5.000,0
"04/02/08","21:04:43",24770.000,"cc",28274.588,6.00,6,0.100,22278.000,0.200,962.000,0.300,595.000,0.500,678.000,1.000,257.000,5.000,0
"04/02/08","21:04:49",24756.000,"cc",28334.324,6.00,6,0.100,22222.000,0.200,977.000,0.300,633.000,0.500,715.000,1.000,209.000,5.000,0
"04/02/08","21:04:55",24766.000,"cc",28391.469,6.00,6,0.100,22314.000,0.200,957.000,0.300,618.000,0.500,668.000,1.000,209.000,5.000,0
"04/02/08","21:05:01",24760.000,"cc",28235.238,6.00,6,0.100,22419.000,0.200,916.000,0.300,566.000,0.500,638.000,1.000,221.000,5.000,0
"04/02/08","21:05:07",25097.000,"cc",28260.996,6.00,6,0.100,22480.000,0.200,961.000,0.300,635.000,0.500,784.000,1.000,237.000,5.000,0
"04/02/08","21:05:13",25105.000,"cc",28329.928,6.00,6,0.100,22625.000,0.200,962.000,0.300,596.000,0.500,711.000,1.000,211.000,5.000,0
"04/02/08","21:05:19",25110.000,"cc",28274.801,6.00,6,0.100,22743.000,0.200,976.000,0.300,525.000,0.500,613.000,1.000,253.000,5.000,0
"04/02/08","21:05:25",24946.000,"cc",28273.330,6.00,6,0.100,22467.000,0.200,975.000,0.300,607.000,0.500,676.000,1.000,221.000,5.000,0
"04/02/08","21:05:31",25199.000,"cc",28310.106,6.00,6,0.100,22691.000,0.200,976.000,0.300,586.000,0.500,690.000,1.000,256.000,5.000,0
"04/02/08","21:05:37",25658.000,"cc",28263.865,6.00,6,0.100,22891.000,0.200,1095.000,0.300,627.000,0.500,791.000,1.000,254.000,5.000,0
"04/02/08","21:05:43",25538.000,"cc",28412.037,6.00,6,0.100,22881.000,0.200,1030.000,0.300,618.000,0.500,760.000,1.000,249.000,5.000,0
"04/02/08","21:05:49",25349.000,"cc",28382.352,6.00,6,0.100,22709.000,0.200,996.000,0.300,677.000,0.500,727.000,1.000,240.000,5.000,0
"04/02/08","21:05:55",25385.000,"cc",28294.861,6.00,6,0.100,22792.000,0.200,1013.000,0.300,635.000,0.500,683.000,1.000,262.000,5.000,0
"04/02/08","21:06:01",25393.000,"cc",28319.088,6.00,6,0.100,22754.000,0.200,1033.000,0.300,672.000,0.500,704.000,1.000,230.000,5.000,0
"04/02/08","21:06:07",25132.000,"cc",28247.338,6.00,6,0.100,22388.000,0.200,1089.000,0.300,662.000,0.500,767.000,1.000,226.000,5.000,0
"04/02/08","21:06:13",25314.000,"cc",28335.428,6.00,6,0.100,22474.000,0.200,1068.000,0.300,690.000,0.500,853.000,1.000,229.000,5.000,0
"04/02/08","21:06:19",25640.000,"cc",28296.850,6.00,6,0.100,22749.000,0.200,1107.000,0.300,679.000,0.500,832.000,1.000,273.000,5.000,0
"04/02/08","21:06:25",25411.000,"cc",28355.922,6.00,6,0.100,22721.000,0.200,1044.000,0.300,656.000,0.500,728.000,1.000,262.000,5.000,0
"04/02/08","21:06:31",25530.000,"cc",28269.897,6.00,6,0.100,22921.000,0.200,1007.000,0.300,646.000,0.500,730.000,1.000,226.000,5.000,0
"04/02/08","21:06:37",24649.000,"cc",28302.438,6.00,6,0.100,22292.000,0.200,911.000,0.300,553.000,0.500,661.000,1.000,232.000,5.000,0
"04/02/08","21:06:43",25105.000,"cc",28350.820,6.00,6,0.100,22640.000,0.200,932.000,0.300,618.000,0.500,695.000,1.000,220.000,5.000,0
"04/02/08","21:06:49",25171.000,"cc",28401.436,6.00,6,0.100,22714.000,0.200,938.000,0.300,584.000,0.500,683.000,1.000,252.000,5.000,0
"04/02/08","21:06:55",25681.000,"cc",28402.885,6.00,6,0.100,23132.000,0.200,996.000,0.300,590.000,0.500,716.000,1.000,247.000,5.000,0
"04/02/08","21:07:01",25866.000,"cc",28297.662,6.00,6,0.100,23220.000,0.200,1003.000,0.300,617.000,0.500,768.000,1.000,258.000,5.000,0
"04/02/08","21:07:07",26115.000,"cc",28273.795,6.00,6,0.100,23363.000,0.200,1032.000,0.300,692.000,0.500,770.000,1.000,258.000,5.000,0
"04/02/08","21:07:13",25587.000,"cc",28255.377,6.00,6,0.100,23093.000,0.200,993.000,0.300,575.000,0.500,697.000,1.000,229.000,5.000,0
"04/02/08","21:07:19",25800.000,"cc",28253.836,6.00,6,0.100,23086.000,0.200,1026.000,0.300,633.000,0.500,792.000,1.000,263.000,5.000,0
"04/02/08","21:07:25",26204.000,"cc",28295.580,6.00,6,0.100,23486.000,0.200,1050.000,0.300,675.000,0.500,773.000,1.000,220.000,5.000,0
"04/02/08","21:07:31",26105.000,"cc",28301.176,6.00,6,0.100,23311.000,0.200,1050.000,0.300,674.000,0.500,781.000,1.000,289.000,5.000,0
"04/02/08","21:07:37",25941.000,"cc",28327.168,6.00,6,0.100,23086.000,0.200,1077.000,0.300,675.000,0.500,827.000,1.000,276.000,5.000,0
"04/02/08","21:07:43",25579.000,"cc",28432.330,6.00,6,0.100,22890.000,0.200,1017.000,0.300,680.000,0.500,727.000,1.000,265.000,5.000,0
"04/02/08","21:07:49",25940.000,"cc",28300.514,6.00,6,0.100,23097.000,0.200,1113.000,0.300,674.000,0.500,786.000,1.000,270.000,5.000,0
"04/02/08","21:07:55",25788.000,"cc",28304.076,6.00,6,0.100,23173.000,0.200,983.000,0.300,654.000,0.500,733.000,1.000,245.000,5.000,0
"04/02/08","21:08:01",26237.000,"cc",28290.863,6.00,6,0.100,23458.000,0.200,1053.000,0.300,664.000,0.500,785.000,1.000,277.000,5.000,0
"04/02/08","21:08:07",26302.000,"cc",28339.549,6.00,6,0.100,23416.000,0.200,1062.000,0.300,750.000,0.500,795.000,1.000,279.000,5.000,0
"04/02/08","21:08:13",26299.000,"cc",28244.832,6.00,6,0.100,23365.000,0.200,1129.000,0.300,712.000,0.500,825.000,1.000,268.000,5.000,0
"04/02/08","21:08:19",26254.000,"cc",28315.488,6.00,6,0.100,23429.000,0.200,1065.000,0.300,681.000,0.500,770.000,1.000,309.000,5.000,0
"04/02/08","21:08:25",25823.000,"cc",28306.996,6.00,6,0.100,23058.000,0.200,1056.000,0.300,685.000,0.500,768.000,1.000,256.000,5.000,0
"04/02/08","21:08:31",26812.000,"cc",28230.453,6.00,6,0.100,23563.000,0.200,1247.000,0.300,754.000,0.500,946.000,1.000,302.000,5.000,0
"04/02/08","21:08:37",26647.000,"cc",28322.807,6.00,6,0.100,23721.000,0.200,1153.000,0.300,711.000,0.500,794.000,1.000,268.000,5.000,0
"04/02/08","21:08:43",26686.000,"cc",28400.922,6.00,6,0.100,23859.000,0.200,1088.000,0.300,697.000,0.500,787.000,1.000,255.000,5.000,0
"04/02/08","21:08:49",26639.000,"cc",28382.797,6.00,6,0.100,23670.000,0.200,1128.000,0.300,705.000,0.500,846.000,1.000,290.000,5.000,0
"04/02/08","21:08:55",25874.000,"cc",28369.315,6.00,6,0.100,23214.000,0.200,1004.000,0.300,662.000,0.500,753.000,1.000,241.000,5.000,0
"04/02/08","21:09:01",26327.000,"cc",28403.961,6.00,6,0.100,23626.000,0.200,1040.000,0.300,632.000,0.500,767.000,1.000,262.000,5.000,0
"04/02/08","21:09:07",26485.000,"cc",28284.236,6.00,6,0.100,23777.000,0.200,1047.000,0.300,643.000,0.500,783.000,1.000,235.000,5.000,0
"04/02/08","21:09:13",26301.000,"cc",28245.928,6.00,6,0.100,23554.000,0.200,1053.000,0.300,635.000,0.500,760.000,1.000,299.000,5.000,0
"04/02/08","21:09:19",26658.000,"cc",28294.248,6.00,6,0.100,23715.000,0.200,1090.000,0.300,729.000,0.500,843.000,1.000,281.000,5.000,0
"04/02/08","21:09:25",26694.000,"cc",28382.080,6.00,6,0.100,23899.000,0.200,1057.000,0.300,682.000,0.500,789.000,1.000,267.000,5.000,0
"04/02/08","21:09:31",27598.000,"cc",28321.924,6.00,6,0.100,24238.000,0.200,1345.000,0.300,830.000,0.500,853.000,1.000,332.000,5.000,0
"04/02/08","21:09:37",26512.000,"cc",28335.639,6.00,6,0.100,23768.000,0.200,1038.000,0.300,649.000,0.500,791.000,1.000,266.000,5.000,0
"04/02/08","21:09:43",26350.000,"cc",28253.299,6.00,6,0.100,23566.000,0.200,1045.000,0.300,656.000,0.500,793.000,1.000,290.000,5.000,0
"04/02/08","21:09:49",26261.000,"cc",28285.516,6.00,6,0.100,23415.000,0.200,1046.000,0.300,662.000,0.500,843.000,1.000,295.000,5.000,0
"04/02/08","21:09:55",26291.000,"cc",28286.797,6.00,6,0.100,23558.000,0.200,1047.000,0.300,661.000,0.500,779.000,1.000,246.000,5.000,0
"04/02/08","21:10:01",26248.000,"cc",28379.691,6.00,6,0.100,23526.000,0.200,1049.000,0.300,662.000,0.500,761.000,1.000,250.000,5.000,0
"04/02/08","21:10:07",26016.000,"cc",28214.477,6.00,6,0.100,23399.000,0.200,1010.000,0.300,615.000,0.500,735.000,1.000,257.000,5.000,0
"04/02/08","21:10:13",26208.000,"cc",28300.600,6.00,6,0.100,23457.000,0.200,1018.000,0.300,704.000,0.500,793.000,1.000,236.000,5.000,0
"04/02/08","21:10:19",26356.000,"cc",28318.738,6.00,6,0.100,23491.000,0.200,1078.000,0.300,679.000,0.500,826.000,1.000,282.000,5.000,0
"04/02/08","21:10:25",26248.000,"cc",28391.170,6.00,6,0.100,23475.000,0.200,1048.000,0.300,695.000,0.500,769.000,1.000,261.000,5.000,0
"04/02/08","21:10:31",26414.000,"cc",28325.943,6.00,6,0.100,23552.000,0.200,1056.000,0.300,695.000,0.500,834.000,1.000,277.000,5.000,0
"04/02/08","21:10:37",26589.000,"cc",28322.232,6.00,6,0.100,23968.000,0.200,1006.000,0.300,580.000,0.500,757.000,1.000,278.000,5.000,0
"04/02/08","21:10:43",26723.000,"cc",28245.297,6.00,6,0.100,23914.000,0.200,1019.000,0.300,698.000,0.500,793.000,1.000,299.000,5.000,0
"04/02/08","21:10:49",27134.000,"cc",28312.578,6.00,6,0.100,24272.000,0.200,1072.000,0.300,655.000,0.500,845.000,1.000,290.000,5.000,0
"04/02/08","21:10:55",26315.000,"cc",28363.016,6.00,6,0.100,23525.000,0.200,1012.000,0.300,664.000,0.500,837.000,1.000,277.000,5.000,0
"04/02/08","21:11:01",27215.000,"cc",28217.977,6.00,6,0.100,24064.000,0.200,1229.000,0.300,739.000,0.500,891.000,1.000,292.000,5.000,0
"04/02/08","21:11:07",27234.000,"cc",28369.594,6.00,6,0.100,24371.000,0.200,1082.000,0.300,695.000,0.500,817.000,1.000,269.000,5.000,0
"04/02/08","21:11:13",27159.000,"cc",28309.076,6.00,6,0.100,24112.000,0.200,1129.000,0.300,763.000,0.500,856.000,1.000,299.000,5.000,0
"04/02/08","21:11:19",27934.000,"cc",28286.543,6.00,6,0.100,24832.000,0.200,1175.000,0.300,764.000,0.500,849.000,1.000,314.000,5.000,0
"04/02/08","21:11:25",27549.000,"cc",28345.506,6.00,6,0.100,24657.000,0.200,1097.000,0.300,700.000,0.500,805.000,1.000,290.000,5.000,0
"04/02/08","21:11:31",27663.000,"cc",28374.988,6.00,6,0.100,24658.000,0.200,1138.000,0.300,716.000,0.500,841.000,1.000,310.000,5.000,0
"04/02/08","21:11:37",27282.000,"cc",28312.416,6.00,6,0.100,24352.000,0.200,1138.000,0.300,657.000,0.500,829.000,1.000,306.000,5.000,0
"04/02/08","21:11:43",27273.000,"cc",28319.783,6.00,6,0.100,24321.000,0.200,1104.000,0.300,697.000,0.500,864.000,1.000,287.000,5.000,0
"04/02/08","21:11:49",27232.000,"cc",28304.850,6.00,6,0.100,24190.000,0.200,1205.000,0.300,690.000,0.500,854.000,1.000,293.000,5.000,0
"04/02/08","21:11:55",27231.000,"cc",28301.746,6.00,6,0.100,24279.000,0.200,1110.000,0.300,724.000,0.500,868.000,1.000,250.000,5.000,0
"04/02/08","21:12:01",27180.000,"cc",28272.857,6.00,6,0.100,24272.000,0.200,1094.000,0.300,668.000,0.500,863.000,1.000,283.000,5.000,0
"04/02/08","21:12:07",27522.000,"cc",28386.609,6.00,6,0.100,24536.000,0.200,1130.000,0.300,656.000,0.500,891.000,1.000,309.000,5.000,0
"04/02/08","21:12:13",27445.000,"cc",28336.178,6.00,6,0.100,24377.000,0.200,1162.000,0.300,679.000,0.500,897.000,1.000,330.000,5.000,0
"04/02/08","21:12:19",27349.000,"cc",28363.940,6.00,6,0.100,24381.000,0.200,1065.000,0.300,750.000,0.500,851.000,1.000,302.000,5.000,0
"04/02/08","21:12:25",27395.000,"cc",28333.492,6.00,6,0.100,24423.000,0.200,1096.000,0.300,736.000,0.500,882.000,1.000,258.000,5.000,0
"04/02/08","21:12:31",27215.000,"cc",28287.615,6.00,6,0.100,24302.000,0.200,1049.000,0.300,723.000,0.500,879.000,1.000,262.000,5.000,0
"04/02/08","21:12:37",26853.000,"cc",28355.242,6.00,6,0.100,23995.000,0.200,1063.000,0.300,693.000,0.500,827.000,1.000,275.000,5.000,0
"04/02/08","21:12:43",27225.000,"cc",28370.252,6.00,6,0.100,24247.000,0.200,1093.000,0.300,736.000,0.500,885.000,1.000,264.000,5.000,0
"04/02/08","21:12:49",26723.000,"cc",28351.570,6.00,6,0.100,23910.000,0.200,1022.000,0.300,622.000,0.500,856.000,1.000,313.000,5.000,0
"04/02/08","21:12:55",26690.000,"cc",28280.729,6.00,6,0.100,23678.000,0.200,1159.000,0.300,751.000,0.500,838.000,1.000,264.000,5.000,0
"04/02/08","21:13:01",26620.000,"cc",28378.473,6.00,6,0.100,23791.000,0.200,1052.000,0.300,756.000,0.500,786.000,1.000,235.000,5.000,0
"04/02/08","21:13:07",26699.000,"cc",28228.473,6.00,6,0.100,23950.000,0.200,1012.000,0.300,655.000,0.500,829.000,1.000,253.000,5.000,0
"04/02/08","21:13:13",26710.000,"cc",28311.424,6.00,6,0.100,23825.000,0.200,1092.000,0.300,685.000,0.500,836.000,1.000,272.000,5.000,0
"04/02/08","21:13:19",26635.000,"cc",28282.940,6.00,6,0.100,23692.000,0.200,1169.000,0.300,698.000,0.500,806.000,1.000,270.000,5.000,0
"04/02/08","21:13:25",26833.000,"cc",28358.922,6.00,6,0.100,23938.000,0.200,1047.000,0.300,727.000,0.500,825.000,1.000,296.000,5.000,0
"04/02/08","21:13:31",27028.000,"cc",28236.561,6.00,6,0.100,24077.000,0.200,1096.000,0.300,723.000,0.500,842.000,1.000,290.000,5.000,0
"04/02/08","21:13:37",26858.000,"cc",28383.387,6.00,6,0.100,23992.000,0.200,1009.000,0.300,716.000,0.500,821.000,1.000,320.000,5.000,0
"04/02/08","21:13:43",27149.000,"cc",28334.018,6.00,6,0.100,24256.000,0.200,1047.000,0.300,711.000,0.500,842.000,1.000,293.000,5.000,0
"04/02/08","21:13:49",26897.000,"cc",28440.123,6.00,6,0.100,24071.000,0.200,1064.000,0.300,655.000,0.500,827.000,1.000,280.000,5.000,0
"04/02/08","21:13:55",26656.000,"cc",28338.199,6.00,6,0.100,23935.000,0.200,1050.000,0.300,663.000,0.500,762.000,1.000,246.000,5.000,0
"04/02/08","21:14:01",27016.000,"cc",28237.523,6.00,6,0.100,24227.000,0.200,1066.000,0.300,682.000,0.500,764.000,1.000,277.000,5.000,0
"04/02/08","21:14:07",27078.000,"cc",28309.832,6.00,6,0.100,24175.000,0.200,1106.000,0.300,704.000,0.500,827.000,1.000,266.000,5.000,0
"04/02/08","21:14:13",26626.000,"cc",28200.273,6.00,6,0.100,23919.000,0.200,1065.000,0.300,639.000,0.500,765.000,1.000,238.000,5.000,0
"04/02/08","21:14:19",27095.000,"cc",28353.510,6.00,6,0.100,24272.000,0.200,1114.000,0.300,643.000,0.500,788.000,1.000,278.000,5.000,0
"04/02/08","21:14:25",26674.000,"cc",28479.281,6.00,6,0.100,23911.000,0.200,1085.000,0.300,621.000,0.500,787.000,1.000,270.000,5.000,0
"04/02/08","21:14:31",26420.000,"cc",28374.842,6.00,6,0.100,23671.000,0.200,1013.000,0.300,689.000,0.500,764.000,1.000,283.000,5.000,0
"04/02/08","21:14:37",26649.000,"cc",28259.430,6.00,6,0.100,23925.000,0.200,1066.000,0.300,628.000,0.500,761.000,1.000,269.000,5.000,0
"04/02/08","21:14:43",26912.000,"cc",28275.963,6.00,6,0.100,23996.000,0.200,1125.000,0.300,693.000,0.500,846.000,1.000,252.000,5.000,0
"04/02/08","21:14:49",26197.000,"cc",28354.180,6.00,6,0.100,23484.000,0.200,999.000,0.300,679.000,0.500,752.000,1.000,283.000,5.000,0
"04/02/08","21:14:55",26083.000,"cc",28347.240,6.00,6,0.100,23373.000,0.200,1053.000,0.300,642.000,0.500,752.000,1.000,263.000,5.000,0
"04/02/08","21:15:01",26228.000,"cc",28311.424,6.00,6,0.100,23614.000,0.200,1032.000,0.300,626.000,0.500,687.000,1.000,269.000,5.000,0
"04/02/08","21:15:07",26562.000,"cc",28194.648,6.00,6,0.100,23545.000,0.200,1134.000,0.300,738.000,0.500,849.000,1.000,296.000,5.000,0
"04/02/08","21:15:13",26067.000,"cc",28167.352,6.00,6,0.100,23327.000,0.200,1057.000,0.300,643.000,0.500,772.000,1.000,268.000,5.000,0
"04/02/08","21:15:19",26354.000,"cc",28377.623,6.00,6,0.100,23619.000,0.200,992.000,0.300,647.000,0.500,814.000,1.000,282.000,5.000,0
"04/02/08","21:15:25",26165.000,"cc",28351.928,6.00,6,0.100,23406.000,0.200,1021.000,0.300,689.000,0.500,766.000,1.000,283.000,5.000,0
"04/02/08","21:15:31",26935.000,"cc",28344.813,6.00,6,0.100,23983.000,0.200,1148.000,0.300,731.000,0.500,783.000,1.000,290.000,5.000,0
"04/02/08","21:15:37",26396.000,"cc",28314.356,6.00,6,0.100,23536.000,0.200,1127.000,0.300,706.000,0.500,753.000,1.000,274.000,5.000,0
"04/02/08","21:15:43",26561.000,"cc",28258.832,6.00,6,0.100,23634.000,0.200,1169.000,0.300,699.000,0.500,794.000,1.000,265.000,5.000,0
"04/02/08","21:15:49",26288.000,"cc",28339.570,6.00,6,0.100,23452.000,0.200,1068.000,0.300,713.000,0.500,777.000,1.000,278.000,5.000,0
"04/02/08","21:15:55",26563.000,"cc",28336.463,6.00,6,0.100,23815.000,0.200,1027.000,0.300,688.000,0.500,753.000,1.000,280.000,5.000,0
"04/02/08","21:16:01",26470.000,"cc",28270.203,6.00,6,0.100,23779.000,0.200,1015.000,0.300,629.000,0.500,762.000,1.000,285.000,5.000,0
"04/02/08","21:16:07",26783.000,"cc",28438.248,6.00,6,0.100,24008.000,0.200,999.000,0.300,663.000,0.500,809.000,1.000,304.000,5.000,0
"04/02/08","21:16:13",26826.000,"cc",28352.498,6.00,6,0.100,24095.000,0.200,1007.000,0.300,697.000,0.500,758.000,1.000,269.000,5.000,0
"04/02/08","21:16:19",26934.000,"cc",28235.912,6.00,6,0.100,24059.000,0.200,1086.000,0.300,715.000,0.500,793.000,1.000,281.000,5.000,0
"04/02/08","21:16:25",26797.000,"cc",28279.926,6.00,6,0.100,23889.000,0.200,1100.000,0.300,680.000,0.500,852.000,1.000,276.000,5.000,0
"04/02/08","21:16:31",27192.000,"cc",28216.207,6.00,6,0.100,23957.000,0.200,1183.000,0.300,856.000,0.500,909.000,1.000,287.000,5.000,0
"04/02/08","21:16:37",26709.000,"cc",28462.877,6.00,6,0.100,23997.000,0.200,1053.000,0.300,679.000,0.500,718.000,1.000,262.000,5.000,0